Simultaneous Nadir Overpasses (SNOs) Predictions

Prediction of SNOs between GOES-17 and NOAA-20 Satellite Orbit:

Table of predicted SNOs for the next 14.0 days since TLE Epoch: 11/2/2024
Index Date Time (GOES-17) GOES-17 Lat,Lon NOAA-20 Lat,Lon Distance(km) Time Diff (sec)
1 11/02/2024 20:16:04 0.01,-104.69 0.43,-102.85 209.67 80
2 11/04/2024 08:37:50 -0.00,-104.69 0.79,-108.11 390.44 80
3 11/05/2024 08:16:25 -0.00,-104.68 -0.27,-103.59 125.08 80
4 11/06/2024 20:38:21 0.00,-104.66 -0.94,-108.88 481.76 80
5 11/07/2024 20:22:15 0.01,-104.65 0.06,-104.35 34.18 80
6 11/10/2024 08:25:16 -0.01,-104.65 0.10,-105.08 49.55 80
7 11/11/2024 08:03:51 -0.02,-104.64 -0.92,-100.55 466.26 80
8 11/12/2024 20:25:46 0.01,-104.62 -0.26,-105.85 140.21 80
9 11/13/2024 20:09:40 0.01,-104.62 0.77,-101.32 376.22 80
10 11/15/2024 08:31:26 0.00,-104.63 0.42,-106.58 222.15 80
